Lid_Strength_Index
12 12 12 12 12 12 12 12 12 12 13 13 13 13 13 13 13 13 13 13 13 13 12 12 12 12 12 12 12 12 12 13 14 13 12 12 11 11 10 10 10 11 10
11 11 12 12 12 12 12 12 12 13 13 13 13 14 13 13 13 14 14 14 14 14 13 13 13 13 13 13 12 13 13 12 13 15 13 13 13 12 11 11 11 10 11
11 11 12 12 12 12 13 13 13 13 14 14 14 14 14 15 15 15 15 14 14 14 14 14 14 14 15 14 14 14 13 13 13 13 14 12 12 12 12 12 12 11 10
12 12 12 12 12 13 13 14 14 14 14 14 14 15 15 15 15 15 15 15 14 14 14 14 14 15 15 15 15 15 15 15 14 14 14 14 13 12 12 13 13 11 11
12 12 12 12 13 13 14 14 15 15 15 15 16 16 16 16 15 15 15 15 15 15 14 14 14 14 14 14 14 15 14 14 14 15 15 14 14 14 14 14 14 13 12
12 12 12 13 14 14 15 16 16 16 16 16 16 16 16 16 15 14 14 14 14 15 15 14 14 14 14 13 13 13 13 15 15 15 15 15 15 15 13 14 14 15 17
12 13 13 14 15 16 16 16 16 16 16 17 17 17 17 16 15 14 13 14 14 14 14 15 15 14 14 15 14 13 13 12 12 13 15 14 14 14 14 14 14 14 15
13 14 15 15 16 16 17 17 17 17 17 17 17 17 16 16 14 13 13 14 14 14 14 15 15 15 14 14 14 14 14 13 12 12 12 12 12 11 11 12 12 12 12
14 15 15 16 17 17 18 17 17 17 17 17 16 16 17 16 15 14 14 14 15 15 14 14 14 14 13 12 13 13 13 12 11 10 10 9 9 9 9 10 12 13 14
14 14 15 16 18 18 17 18 17 17 17 16 16 17 17 18 15 14 13 13 15 14 14 13 11 12 11 10 11 12 14 13 12 12 11 10 10 10 10 10 11 14 14
14 15 17 17 18 18 18 17 18 18 17 18 18 17 17 17 16 14 12 13 13 13 12 12 11 10 10 9 9 10 11 10 10 10 10 10 9 9 9 9 10 11 13
16 16 17 19 18 17 19 18 18 18 18 18 18 17 15 15 14 13 12 11 11 12 11 11 10 9 9 10 10 10 10 10 12 12 12 12 12 11 11 10 10 10 10
17 19 20 20 19 18 18 18 17 17 18 17 17 17 16 14 13 12 12 11 10 10 10 10 10 11 11 12 13 12 13 14 14 15 15 14 13 12 11 12 11 11 11
19 19 20 19 18 18 17 17 17 17 17 17 17 16 15 13 13 12 11 9 9 9 10 12 13 14 14 14 15 15 15 15 16 16 15 14 12 12 13 12 13 13 13
19 18 17 17 18 17 17 16 16 15 16 16 15 13 14 14 13 10 10 10 10 11 12 15 16 17 17 17 17 17 16 16 16 15 14 14 14 13 13 12 12 12 13
18 17 16 17 17 17 17 16 14 13 12 12 11 12 12 11 10 9 9 9 9 11 15 17 18 18 18 17 17 16 16 15 15 14 14 14 13 13 12 11 11 12 14
16 16 17 17 17 17 17 17 17 15 15 14 13 13 12 11 10 10 10 10 12 13 17 18 18 18 18 17 17 16 16 15 15 14 13 13 13 12 12 12 12 13 13
18 19 17 17 17 17 17 17 18 18 18 17 15 15 13 12 11 11 11 13 17 17 18 18 18 17 17 17 16 16 15 15 14 13 13 13 13 12 12 12 12 13 13
19 18 18 18 18 18 18 18 18 19 19 18 17 16 16 14 13 13 14 18 19 19 18 18 17 17 16 16 15 15 15 15 14 13 12 12 12 12 13 12 11 12 13
20 20 19 19 19 19 19 19 19 19 19 19 18 17 17 17 15 17 18 19 19 19 18 18 17 17 16 16 15 15 15 15 14 13 12 13 12 13 13 12 12 12 11
19 20 20 19 20 19 20 20 19 19 20 19 18 17 15 15 16 19 20 20 19 19 19 18 18 17 16 16 15 15 16 15 14 12 13 13 13 14 13 12 12 11 11
19 19 20 20 19 20 20 20 20 20 20 20 19 18 15 17 19 20 20 20 19 19 19 19 18 17 17 16 16 15 16 15 14 12 13 14 14 14 14 13 13 13 12
20 20 21 21 20 21 21 21 21 21 20 19 19 19 19 19 20 21 21 20 20 20 19 19 19 19 17 16 15 15 15 14 13 12 13 14 14 14 14 15 14 14 14
20 21 20 20 20 20 21 21 20 21 21 20 19 19 20 20 21 22 22 21 21 20 20 19 19 20 19 18 16 15 14 14 11 12 13 14 14 14 15 15 15 15 15
21 21 21 21 21 21 21 21 21 21 21 21 21 20 20 21 22 23 22 22 22 22 21 21 20 20 20 20 20 18 16 14 11 13 13 13 14 14 15 15 15 15 15
21 21 21 21 21 22 22 22 22 22 22 21 22 22 22 22 23 23 23 23 23 23 22 22 21 21 21 20 18 17 15 13 10 13 13 13 14 14 15 15 15 15 15